Other Public Products
Issued by NWS Grand Forks, ND

Home | Current Version | Previous Version | Graphics & Text | Print | Product List | Glossary On
Versions: 1 2 3 4 5 6 7 8 9 10 11 12 13 14 15 16 17 18 19 20 21 22 23 24 25 26 27 28 29 30 31 32 33 34 35 36 37 38 39 40 41 42 43 44 45 46 47 48 49 50
000
FPUS83 KFGF 230931
OPUFGF
PRAIRIE TO PINES WEATHER ROUNDUP
NATIONAL WEATHER SERVICE EASTERN NORTH DAKOTA/GRAND FORKS ND
400 AM CDT SAT AUG 23 2014

 **SATELLITE DATA USED TO AUGMENT SKY COVER AT AUTOMATED STATIONS**
 *****  WEATHER ACROSS EASTERN NORTH DAKOTA  *****

CITY           SKY/WX    TMP DP  RH WIND       PRES   REMARKS
GRAND FORKS    CLOUDY    63  61  93 N13       30.06S
GRAND FORKS AF DRIZZLE   61  61 100 N15       30.07F
GRAND CITY NWS   N/A     43 N/A N/A VRB9        N/A
BUXTON           N/A     63  62  99 N10         N/A
DEVILS LAKE    CLOUDY    59  52  77 NE14      30.08F
FARGO          CLOUDY    65  63  93 N9        30.02F FOG
WAHPETON ARPT  CLOUDY    64  63  94 N9        30.00F
$$

 *****  WEATHER ACROSS CENTRAL AND WESTERN NORTH DAKOTA  *****

CITY           SKY/WX    TMP DP  RH WIND       PRES   REMARKS
JAMESTOWN      CLOUDY    62  58  86 NE10      30.06R
BISMARCK       CLOUDY    63  60  90 NE17      30.05F
MINOT          CLOUDY    58  54  86 N10       30.12F
MINOT AFB      MOCLDY    57  57 100 NE12      30.12F
GARRISON         N/A     59  57  93 E12       30.08F
WILLISTON      CLOUDY    60  55  83 NE13      30.10S
DICKINSON      CLOUDY    61  60  97 E16G29    30.01S FOG
HETTINGER      CLOUDY    65  62  90 E17       30.00F
$$

 *****  OTHER OBSERVATIONS NORTHEAST NORTH DAKOTA  *****

CITY           SKY/WX    TMP DP  RH WIND       PRES   REMARKS
WALHALLA         N/A     57  57 100 N9        30.14R
LANGDON        CLOUDY    55  55 100 NE12      30.13F FOG
CAVALIER       CLOUDY    57  55  94 N9        30.12S
GRAFTON        CLOUDY    57  57 100 N12       30.08F
CANDO          CLOUDY    57  55  94 NE10      30.13F
FORT TOTTEN      N/A     59  56  91 NE6       29.95
ROLLA          CLOUDY    54  54 100 NE13G18   30.16F FOG
RUGBY          CLOUDY    57  57 100 NE15      30.12F
 ***** THE ABOVE OBSERVATIONS ARE NON NWS ARE NOT QUALITY
        CONTROLLED AND MAY MIS-REPORT RAIN FOR SNOW...
$$

 *****  OTHER OBSERVATIONS SOUTHEAST NORTH DAKOTA *****

CITY           SKY/WX    TMP DP  RH WIND       PRES   REMARKS
COOPERSTOWN    NOT AVBL
VALLEY CITY    CLOUDY    61  61 100 N17       30.05F
OAKES            N/A     63  63 100 NE14      30.02F FOG
GWINNER        CLOUDY    64  64 100 N12       30.02F
SHEYENNE NWR     N/A     64  64  98 NE7       29.95S
BUFFALO          N/A     62  59  91 N14         N/A
WYNDMERE       NOT AVBL
 ***** THE ABOVE OBSERVATIONS ARE NON NWS ARE NOT QUALITY
       CONTROLLED AND MAY MIS-REPORT RAIN FOR SNOW...
$$

  *****  WEATHER ACROSS NORTHERN MINNESOTA  *****

CITY           SKY/WX    TMP DP  RH WIND       PRES   REMARKS
FLAG ISLAND    CLOUDY    66  64  94 N8        30.08R
WARROAD        CLOUDY    63  57  82 NW6       30.09S
ROSEAU         CLOUDY    63  57  82 N6        30.08F
HALLOCK        DRIZZLE   61  59  94 N8        30.09S
THF RVR FALLS  CLOUDY    63  63 100 N9        30.06S VSB 1
HALSTAD          N/A     64  63  95 N9          N/A
FOSSTON        CLOUDY    66  64  94 NE6       30.05S
BAUDETTE       FOG       61  60  97 CALM      30.06F VSB 1/2
WASKISH        CLEAR     64  63  94 CALM      30.06R
CROOKSTON      CLOUDY    63  61  94 NE9       30.05F
$$
  *****  WEATHER ACROSS CENTRAL AND WEST MINNESOTA  *****

CITY           SKY/WX    TMP DP  RH WIND       PRES   REMARKS
BEMIDJI        FOG       66  66  99 E7        30.04F VSB 1/2
PARK RAPIDS    FOG       67  67 100 NE3       30.03F VSB 1/2
WADENA         FOG       66  66 100 E5        30.01F VSB 1/2
DETROIT LAKES  CLOUDY    68  66  94 CALM      30.03F
MOORHEAD       FOG       64  64 100 N6        30.02F VSB 1
FERGUS FALLS   CLOUDY    68  66  94 N3        30.00S
ELBOW LAKE     CLOUDY    68  67  98 NE7       30.00S
MORRIS MN      CLOUDY    70  68  94 CALM      30.00R
STAPLES        CLOUDY    64  64 100 E3        30.02S FOG
WHEATON        CLOUDY    64  63  94 N8        30.01S FOG
$$
  *****  WEATHER ELSEWHERE ACROSS MINNESOTA  *****

CITY           SKY/WX    TMP DP  RH WIND       PRES   REMARKS
DULUTH         MOCLDY    62  59  90 E8        30.06R
INTRNTL FALLS  FOG       58  58 100 CALM      30.07R VSB 1/2
ELY            CLOUDY    64  61  88 CALM      30.08S
CLOQUET        PTCLDY    59  57  94 CALM      30.05F FOG
BRAINERD       CLOUDY    63  62  97 NE6       30.02F
HIBBING        CLOUDY    64  62  93 CALM      30.07S
ALEXANDRIA     CLOUDY    69  67  93 E6        30.02F
SAINT CLOUD    MOCLDY    66  64  93 E3        30.01R
MINNEAPOLIS    CLOUDY    69  68  96 NE8       29.98F
$$

  *****  WEATHER ACROSS SOUTH DAKOTA  *****

CITY           SKY/WX    TMP DP  RH WIND       PRES   REMARKS
SIOUX FALLS    HVY RAIN  72  69  90 S7        29.98R FOG
BROOKINGS      NOT AVBL
WATERTOWN      CLOUDY    67  66  97 E9        30.00R FOG
HURON          CLOUDY    71  67  87 E9        29.93S
SISSETON         N/A     66  66 100 NE7       29.99F
ABERDEEN       CLOUDY    65  64  97 NE12      29.98F
MITCHELL       HVY RAIN  71  70  96 E12       29.94S FOG
PIERRE         CLOUDY    69  69 100 E14       29.89F
MOBRIDGE       LGT RAIN  64  63  96 E15G29    29.93S
RAPID CITY     LGT RAIN  65  64  97 SE10      29.94S FOG
$$

  *****  SOME WEATHER IN NEARBY STATES *****

CITY           SKY/WX    TMP DP  RH WIND       PRES   REMARKS
GLASGOW MT     LGT RAIN  60  55  83 E22G31    30.03F
GREAT FALLS MT LGT RAIN  48  48 100 NW15G25   30.10F
CHEYENNE WY    CLOUDY    57  56  96 S9        30.03F
SCOTTSBLUFF NE CLOUDY    62  61  96 CALM      29.96S
OMAHA NE       TSTM      71  69  93 NE6       29.97R
DES MOINES IA  FOG       78  76  93 E7        29.90R THUNDER VSB 1
DAVENPORT IA   CLOUDY    75  73  93 E5        29.95S
CHICAGO IL     CLOUDY    73  69  87 NE5       29.97F FOG
EAU CLAIRE WI  CLOUDY    69  69 100 NE7       29.99F
LA CROSSE WI   CLOUDY    73  70  90 N3        29.95F
$$

  *****  SOME NATIONAL WEATHER *****

CITY           SKY/WX    TMP DP  RH WIND       PRES   REMARKS
LA GUARDIA NY  MOCLDY    67  61  81 E7        30.04S
RALEIGH NC     CLOUDY    75  72  90 CALM      29.93F
ATLANTA GA     PTCLDY    76  71  85 NW5       29.99F
NEW ORLEANS LA PTCLDY    79  76  90 SW5       30.00S
OKLAHOMA CITY  CLEAR     71  61  70 S8        29.94F
ALBUQUERQUE NM PTCLDY    60  54  80 S3        30.17S
SALT LAKE CITY LGT RAIN  58  51  78 CALM      30.01R
LOS ANGELES CA CLOUDY    68  62  81 N3        29.95S
BOISE ID       PTCLDY    58  45  62 CALM      30.00R
SEATTLE WA     CLEAR     64  55  72 SE6       30.11F
$$

*** WEATHER ACROSS MANITOBA...SASKATCHEWAN AND ONTARIO ***
                ***ONTARIO***

CITY           SKY/WX    TMP DP  RH WIND       PRES   REMARKS
GERALDTON      CLEAR     57  57 100 CALM      30.10S FOG
THUNDER BAY    CLOUDY    63  61  94 NW2       30.08R
SIOUX LOOKOUT  PTCLDY    63  63 100 NE2       30.09S
TORONTO        CLOUDY    68  64  88 NE7       30.03S
BIG TROUT LK   LGT RAIN  45  43  93 N9        30.24S FOG
PICKLE LAKE    NOT AVBL
DRYDEN         CLEAR     63  63 100 NE3       30.10R
KENORA         CLOUDY    64  64 100 N6        30.10R
$$
                *** MANITOBA***

CITY           SKY/WX    TMP DP  RH WIND       PRES   REMARKS
BRANDON        MOCLDY    55  54  94 NE9       30.18F
DAUPHIN        CLOUDY    55  54  94 NE7       30.24S
ISLAND LAKE    LGT RAIN N/A N/A N/A NE8         N/A
PILOT MOUND      N/A     55  54  94 N7          N/A
THE PAS        PTCLDY    54  52  94 NE5       30.35S
THOMPSON       MOCLDY    46  43  87 NE7       30.43R
WINNIPEG       DRIZZLE   55  55 100 N10       30.13S FOG
LYNN LAKE      CLOUDY    48  45  87 MISG      30.43S
CHURCHILL      CLOUDY    46  43  87 N13       30.45R
GILLAM         CLEAR     45  41  87 N13       30.42R
$$
                ***SASKATCHEWAN***

CITY           SKY/WX    TMP DP  RH WIND       PRES   REMARKS
ESTEVAN        CLOUDY    55  52  88 NE7       30.18S
KINDERSLEY     CLOUDY    50  48  93 N8        30.29S
LLOYDMINSTER   CLOUDY    48  43  81 N5        30.34F
PRINCE ALBERT  MOCLDY    55  54  94 E6        30.31S
REGINA         PTCLDY    54  50  87 NE12G18   30.21S


USA.gov is the U.S. government's official web portal to all federal, state and local government web resources and services.